PROBA-1 1 26958U 01049B 26237.95813501 .00001346 00000+0 89985-4 0 9992 2 26958 97.9628 248.9471 0053058 246.3753 113.1898 15.07752998354139 CUTE-1 (CO-55) 1 27844U 03031E 26237.51147311 .00000229 00000+0 11777-3 0 9993 2 27844 98.6766 245.2071 0009337 351.9382 8.1646 14.24371784201541 CUBESAT XI-IV (CO-57) 1 27848U 03031J 26237.95654107 .00000199 00000+0 10644-3 0 9999 2 27848 98.6795 245.3030 0009642 9.4215 350.7143 14.23652119201307 APRIZESAT 4 1 35684U 09041D 26237.64254531 .00000633 00000+0 81771-4 0 9999 2 35684 98.1369 314.3329 0044596 96.2105 264.4192 14.83966700921666 APRIZESAT 3 1 35686U 09041F 26237.37775434 .00001910 00000+0 16823-3 0 9995 2 35686 98.2150 33.9633 0061177 197.3893 162.5233 14.96395189926727 PROBA-2 1 36037U 09059B 26237.49690020 .00000143 00000+0 43721-4 0 9990 2 36037 98.2478 59.9026 0014452 68.8252 291.4488 14.54887593891601 APRIZESAT 5 1 37792U 11044E 26237.79331776 .00000685 00000+0 93468-4 0 9993 2 37792 98.2456 172.8139 0052941 137.3862 223.1476 14.81179701809096 APRIZESAT 6 1 37793U 11044F 26237.71728517 .00000482 00000+0 75371-4 0 9997 2 37793 98.2295 149.6187 0042013 222.1643 167.4893 14.77002909807419 PROBA-V 1 39159U 13021A 26237.70068023 .00000044 00000+0 37326-4 0 9992 2 39159 98.3664 212.9002 0003053 299.1477 60.9397 14.23609729691004 APRIZESAT 7 1 39416U 13066A 26237.31549119 .00001039 00000+0 10784-3 0 9997 2 39416 97.7764 189.5663 0035352 344.7686 15.2465 14.91706391691537 APRIZESAT 8 1 39425U 13066K 26237.28380231 .00000974 00000+0 11081-3 0 9999 2 39425 97.8262 183.8057 0047176 59.4816 301.1045 14.87757294689943 BUGSAT-1 (TITA) 1 40014U 14033E 26237.93814433 .00004122 00000+0 21550-3 0 9999 2 40014 98.0427 334.5980 0026335 304.1560 55.7174 15.16213624666403 SAUDISAT 4 1 40016U 14033G 26237.36979758 .00000632 00000+0 89936-4 0 9995 2 40016 97.7679 21.1544 0044075 206.5833 153.3119 14.79615709656304 APRIZESAT 9 1 40018U 14033J 26237.36903501 .00000365 00000+0 61145-4 0 9995 2 40018 97.9150 8.9133 0065483 339.0859 20.7673 14.74289429653754 APRIZESAT 10 1 40019U 14033K 26237.78531214 .00000363 00000+0 64609-4 0 9996 2 40019 97.9732 3.2238 0079777 52.2355 308.6044 14.70952516652480 TECHDEMOSAT-1 (TDS-1) 1 40076U 14037H 26237.63152689 .00006602 00000+0 36590-3 0 9991 2 40076 98.3856 236.7956 0007248 45.9719 314.2106 15.14174018658730 TECHNOSAT 1 42829U 17042E 26237.65539342 .00003554 00000+0 25189-3 0 9990 2 42829 97.4360 32.7216 0016822 213.3903 146.6265 15.05295995497153 FLYING LAPTOP 1 42831U 17042G 26237.96682126 .00002614 00000+0 20609-3 0 9994 2 42831 97.4959 30.9646 0016048 250.4585 109.4907 15.01510098496929 HAWK-A 1 43765U 18099H 26237.11169503 .00006247 00000+0 24565-3 0 9991 2 43765 97.3861 288.4619 0035250 45.0523 315.3565 15.25437393423608 HAWK-B 1 43794U 18099AN 26237.61130608 .00005838 00000+0 24363-3 0 9993 2 43794 97.3910 288.2214 0032941 61.4154 299.0391 15.23543668423606 HAWK-C 1 43799U 18099AT 26237.45208359 .00007982 00000+0 27850-3 0 9995 2 43799 97.3838 290.0593 0040559 42.2067 318.2283 15.29081409424493 SALSAT 1 46495U 20068K 26237.26336135 .00007111 00000+0 24232-3 0 9998 2 46495 97.8877 244.5903 0011122 65.4484 294.7913 15.30667520325922 HAWK-2C 1 47502U 21006CT 26237.57607244 .00005045 00000+0 14884-3 0 9993 2 47502 97.2231 280.5174 0005396 324.2988 35.7895 15.35425669310142 HAWK-2A 1 47505U 21006CW 26237.57699604 .00005180 00000+0 15258-3 0 9993 2 47505 97.2278 281.2390 0005040 331.4096 28.6871 15.35467273310142 HAWK-2B 1 47508U 21006CZ 26237.11094857 .00006106 00000+0 17862-3 0 9997 2 47508 97.2147 279.0061 0005402 329.6581 30.4349 15.35605527310079 HAWK-3B 1 48931U 21059BE 26237.11701318 .00055310 00000+0 36595-3 0 9998 2 48931 97.6598 80.6395 0005126 76.3465 283.8370 15.75385292288687 HAWK-3C 1 48948U 21059BX 26237.56130236 .00051682 00000+0 34150-3 0 9993 2 48948 97.6699 86.9301 0005581 75.4721 284.7162 15.75425591288757 HAWK-3A 1 48957U 21059CG 26237.37063025 .00059237 00000+0 39130-3 0 9990 2 48957 97.6651 83.8702 0005489 77.0321 283.1556 15.75405322288724 HAWK-5C 1 52754U 22057Y 26237.71817060 .00016806 00000+0 26510-3 0 9996 2 52754 97.6652 42.0212 0004171 159.1293 201.0131 15.53605025237130 HAWK-5B 1 52756U 22057AA 26237.91123067 .00017053 00000+0 26885-3 0 9997 2 52756 97.6669 40.5886 0004964 155.5346 204.6143 15.53613065237167 HAWK-5A 1 52757U 22057AB 26237.91101419 .00017228 00000+0 27162-3 0 9998 2 52757 97.6663 41.4164 0004856 158.1435 202.0026 15.53610186237162 HAWK-6B 1 55324U 23011A 26237.61585266 .00005221 00000+0 22241-3 0 9998 2 55324 40.5001 306.9493 0002718 201.3560 158.7137 15.23462286198436 HAWK-6C 1 55326U 23011C 26237.54966105 .00003636 00000+0 15741-3 0 9992 2 55326 40.4986 304.1671 0002679 184.3905 175.6881 15.23454507198437 HAWK-6A 1 55327U 23011D 26237.61524500 .00003807 00000+0 16440-3 0 9997 2 55327 40.4999 305.4148 0002364 186.1132 173.9649 15.23457902198444 HAWK-7A 1 56191U 23054P 26237.93400460 .00005001 00000+0 18574-3 0 9995 2 56191 97.2591 123.4898 0004179 125.2989 234.8643 15.27996710187675 HAWK-7B 1 56193U 23054R 26237.47552747 .00005178 00000+0 19227-3 0 9993 2 56193 97.2618 121.3310 0003050 126.6992 233.4528 15.27992370187607 HAWK-7C 1 56200U 23054Y 26237.60637457 .00004762 00000+0 17703-3 0 9994 2 56200 97.2595 122.2059 0003591 120.9838 239.1755 15.27991585187620